GFSSE_850_spd_000.txt.gz
Wind_Speed
5 5 9 10 11 12 11 10 8 6 6 4 2 1 2 2 5 6 6 7 8 9 9 9 10 12 13 14 15 15 14 12 10 10 9 6 9 6 2 3 5 6 7
8 5 12 12 11 11 10 10 8 6 4 3 1 0 2 3 4 6 6 7 9 11 12 13 14 15 16 19 21 20 16 14 14 12 10 10 10 11 7 3 5 3 4
9 13 12 12 11 11 10 8 7 6 3 1 0 1 3 5 6 8 9 10 12 13 14 14 13 13 14 15 17 18 16 16 15 15 12 10 10 14 11 5 3 4 2
17 8 13 12 11 11 9 7 6 4 2 2 2 4 4 6 7 8 10 12 14 15 15 15 15 14 13 13 13 14 15 16 17 16 14 9 9 5 13 14 6 6 5
13 7 13 14 13 11 9 7 5 4 3 3 4 4 5 6 7 8 9 11 13 14 14 14 13 12 11 11 12 14 14 12 16 20 17 12 18 19 11 10 10 5 5
7 13 14 13 12 10 7 6 4 2 2 2 3 4 5 6 6 7 9 10 11 12 13 13 13 12 11 11 12 12 13 14 14 15 13 17 17 13 18 11 12 9 5
9 15 14 12 10 7 5 3 1 1 2 3 4 5 5 6 7 8 9 10 10 12 13 14 14 13 12 12 13 13 12 12 14 13 9 20 12 4 10 12 10 11 9
12 13 13 11 9 6 3 1 1 1 2 3 4 5 6 7 8 9 8 8 8 10 12 13 14 13 13 13 13 14 14 13 12 6 11 18 17 7 8 15 12 10 11
15 13 13 10 8 5 3 2 2 2 3 3 5 5 7 8 8 8 7 6 9 11 13 15 16 16 16 16 15 15 14 14 12 3 12 14 12 9 12 15 11 11 15
14 11 8 8 8 6 7 5 4 3 3 5 5 7 9 9 16 13 9 15 16 15 15 17 17 17 18 18 15 16 16 13 8 7 12 15 19 17 18 16 12 11 13
12 10 9 8 8 3 5 6 5 8 8 8 9 11 11 11 11 16 18 17 18 17 21 18 19 19 16 12 15 17 17 7 7 9 14 17 15 15 13 12 11 13 15
12 10 10 5 5 9 3 6 9 11 9 7 5 7 6 8 6 12 15 19 18 21 20 17 19 19 16 19 14 12 12 11 18 11 17 20 17 15 13 12 13 15 17
12 11 9 9 5 8 4 4 4 4 4 5 5 8 4 7 7 8 12 14 18 18 14 23 17 17 19 23 19 14 13 15 10 10 17 20 20 14 11 11 11 14 16
14 15 11 6 5 8 5 5 3 3 1 3 5 5 5 3 5 8 7 11 9 12 14 16 16 17 18 22 23 19 15 14 12 12 18 20 19 14 12 12 12 13 14
16 18 16 12 6 1 6 5 7 6 3 3 2 6 6 7 9 11 12 13 12 12 12 14 17 16 17 19 19 22 21 16 16 16 18 19 21 20 16 15 14 14 15
16 19 18 13 8 6 6 6 5 3 1 3 1 6 6 8 11 13 15 14 13 13 15 19 19 21 23 23 20 18 22 22 20 18 19 20 23 22 21 20 19 19 19
17 19 19 17 13 11 6 4 7 4 1 0 3 8 10 9 10 14 16 13 13 15 19 21 19 21 22 23 24 23 22 25 26 23 22 24 24 25 25 22 23 21 20
15 16 13 27 12 9 6 5 4 4 2 1 4 5 10 8 11 14 15 17 18 20 23 23 24 22 24 25 26 26 28 28 28 28 25 25 25 27 28 25 22 22 21
14 9 5 4 9 7 8 4 4 5 2 7 8 8 11 9 10 14 18 20 24 25 25 24 26 26 24 24 28 29 30 29 29 29 29 29 29 26 28 27 25 24 23
8 8 7 5 8 5 5 9 4 6 5 4 5 10 12 11 13 19 21 19 19 23 23 23 25 27 30 31 31 31 32 34 34 34 32 34 33 32 31 33 29 28 28
0 1 8 7 10 6 5 7 8 7 6 7 6 11 14 15 18 26 24 20 20 22 21 23 26 27 28 26 30 31 32 32 31 32 36 37 38 38 39 38 42 34 30
9 11 9 4 9 6 7 5 5 7 7 8 6 10 12 17 23 37 29 23 19 22 23 21 21 25 27 27 29 33 36 36 31 30 30 33 39 42 43 43 41 39 31
12 11 9 8 10 10 8 3 2 4 5 11 19 30 25 28 35 21 19 20 23 25 26 24 24 24 27 27 25 26 32 32 33 31 32 33 34 30 31 28 33 41 37
11 10 8 7 5 3 1 12 16 17 15 22 32 30 28 19 18 15 17 20 22 25 26 23 24 27 30 29 27 21 22 23 18 25 25 22 25 29 25 32 32 30 39
8 7 6 4 3 8 14 13 12 10 19 21 17 16 16 11 15 20 22 24 26 29 31 24 26 25 23 22 22 23 25 30 34 25 26 26 27 25 23 19 17 19 16
6 5 4 5 6 14 11 9 19 20 17 13 13 12 13 18 24 21 24 26 26 24 23 23 22 22 23 23 28 26 26 25 24 19 24 37 33 41 35 32 27 17 25

GFSSE_850_spd_003.txt.gz
Wind_Speed
12 16 14 14 15 14 13 11 10 8 8 9 8 7 7 9 10 10 10 10 11 11 12 12 12 12 10 9 9 11 10 10 10 8 6 6 3 4 7 7 8 6 5
15 17 16 16 15 14 12 10 9 8 8 8 7 7 8 9 10 11 11 11 11 12 12 12 12 12 12 12 11 11 9 7 8 8 8 6 10 6 7 10 7 5 7
17 19 17 16 15 13 12 10 9 9 7 7 6 7 8 8 9 9 9 10 12 14 14 13 11 10 10 11 11 11 10 9 10 8 7 5 8 9 8 7 8 7 6
20 19 18 17 15 13 12 11 10 8 7 7 7 7 7 8 8 9 10 12 14 15 14 13 13 11 10 10 10 10 10 10 9 9 6 6 8 10 7 13 6 7 6
16 18 18 16 15 13 12 11 10 9 7 7 6 6 7 7 8 10 11 12 13 12 12 13 14 14 12 11 10 10 10 10 9 7 6 10 13 12 12 17 7 6 6
15 17 17 15 14 12 10 8 8 7 5 5 6 7 8 8 8 9 10 11 10 10 11 14 14 13 12 12 12 12 11 9 8 4 6 10 11 12 11 12 9 6 10
20 18 16 13 11 9 8 7 6 5 5 6 7 6 7 6 7 8 8 8 8 8 10 12 13 13 13 13 13 12 12 10 8 2 5 11 15 16 13 8 10 8 12
19 17 14 12 9 7 6 5 5 4 4 4 5 5 4 4 5 6 7 8 9 10 12 13 14 14 14 15 15 14 12 10 7 4 7 11 14 10 7 10 11 10 15
18 16 14 11 8 6 5 5 4 3 3 4 4 3 4 5 8 9 8 9 11 12 13 15 15 15 13 13 12 12 12 11 5 4 7 10 12 13 10 13 12 13 16
14 13 11 10 10 9 8 8 7 5 4 5 5 5 6 7 12 13 11 14 13 14 16 16 18 15 13 10 13 12 11 6 3 3 6 11 15 16 16 17 17 17 17
12 10 8 6 7 9 9 7 7 7 6 7 7 7 7 10 11 14 14 16 16 18 17 18 21 18 17 15 16 14 12 5 7 8 11 13 16 15 14 14 13 16 16
14 15 11 4 5 6 5 9 8 7 7 7 7 7 7 9 10 13 12 14 15 14 17 20 20 21 20 20 18 18 13 12 12 12 14 17 18 18 15 16 16 16 17
13 17 11 6 14 8 3 3 3 5 8 5 7 7 6 5 4 5 10 12 13 13 16 17 19 22 22 21 22 22 17 14 11 11 12 15 21 18 16 14 15 15 17
15 19 10 6 7 10 9 5 3 3 2 2 5 5 5 2 3 5 10 12 12 12 14 16 19 24 22 23 24 22 21 18 16 11 16 17 19 18 17 15 15 16 16
19 20 16 8 7 6 9 10 11 9 5 2 3 2 4 5 7 10 13 15 15 12 14 16 19 22 22 24 25 25 25 23 22 19 16 18 20 22 20 19 19 18 18
20 22 16 8 2 2 11 11 8 11 4 1 2 5 7 9 8 10 14 15 16 14 16 20 23 24 22 25 28 27 28 27 26 27 23 21 20 21 23 22 21 23 23
19 28 22 11 8 6 7 5 9 4 3 3 5 8 12 12 10 13 14 14 15 16 18 23 26 25 25 24 26 27 27 29 32 32 29 26 25 23 23 23 23 23 25
16 22 22 19 11 14 10 7 10 6 0 2 6 5 7 5 5 10 11 16 16 17 21 25 25 24 25 25 24 24 25 29 30 32 34 32 29 28 27 25 23 24 25
12 15 16 7 13 16 15 12 8 4 2 4 7 7 6 7 10 11 14 21 21 21 21 20 19 21 23 27 29 30 28 25 28 30 32 32 33 36 34 32 29 26 24
8 7 10 5 6 12 16 12 9 8 8 7 8 7 10 14 16 20 23 29 24 22 24 25 25 24 26 26 23 24 25 26 25 26 29 29 30 34 40 41 37 35 30
10 16 17 11 15 20 17 14 12 12 9 9 11 17 23 22 28 32 27 27 21 21 22 23 25 27 23 25 31 34 36 33 31 30 28 28 30 27 31 37 43 39 38
19 18 18 18 14 14 11 10 10 11 11 17 19 14 15 22 23 25 22 20 19 20 25 27 27 25 27 25 29 34 33 35 35 29 24 23 26 26 19 18 26 35 40
13 9 7 7 8 8 4 6 9 11 10 11 14 20 27 21 16 13 12 14 15 18 21 23 27 29 31 33 32 31 27 27 32 31 29 27 25 22 17 16 13 22 32
11 6 4 5 6 5 7 12 11 12 15 17 19 18 11 15 14 11 14 17 20 23 25 26 30 33 30 30 31 26 22 21 19 23 29 34 35 34 29 26 16 13 18
6 8 9 10 14 16 18 17 18 14 16 12 11 12 13 12 12 16 23 29 28 29 30 31 32 28 26 24 28 27 26 29 31 31 32 37 39 36 33 37 34 28 21
11 10 10 10 10 15 17 21 19 19 13 12 16 16 16 18 23 29 27 22 20 24 25 25 26 27 30 30 28 32 31 27 29 26 30 37 36 38 33 31 29 27 21

GFSSE_850_spd_009.txt.gz
Wind_Speed
20 19 18 17 15 14 12 11 11 11 10 10 10 11 11 11 11 11 11 11 11 11 10 9 8 7 6 4 3 4 5 7 9 10 8 3 3 4 5 6 5 5 8
22 21 18 16 15 13 11 10 11 10 9 9 10 10 10 11 11 11 11 12 12 12 11 11 10 8 7 6 5 5 5 7 9 9 8 7 8 5 6 5 7 8 7
22 21 19 16 14 13 11 11 11 9 9 9 9 10 9 10 10 11 11 12 12 12 12 13 14 13 11 10 9 8 6 4 6 9 10 9 9 11 9 8 10 9 14
22 22 20 16 15 13 12 11 10 9 9 9 9 8 8 8 9 11 12 12 12 12 13 13 13 12 11 11 10 10 8 5 5 6 9 10 11 10 12 13 14 16 12
23 20 18 16 14 13 12 10 9 9 9 8 7 7 8 9 10 11 12 11 11 11 12 13 12 11 9 8 8 7 6 5 5 5 5 7 9 9 8 12 14 13 9
21 19 17 15 13 12 11 10 9 8 7 7 7 8 8 10 10 10 10 11 11 11 11 12 11 10 10 9 8 6 5 5 5 4 5 5 5 6 10 18 15 10 11
22 19 16 14 12 11 9 8 7 6 6 6 6 8 10 10 9 10 11 11 11 12 12 12 11 11 10 10 8 7 7 6 8 7 6 4 4 6 9 11 14 10 10
21 18 16 13 10 9 7 7 6 5 5 4 7 10 10 10 10 9 10 11 12 12 12 14 13 13 12 10 10 10 10 10 9 10 8 7 6 6 7 10 9 10 10
19 17 15 12 10 9 8 7 5 4 4 6 9 10 11 11 11 12 12 12 13 13 13 14 17 17 14 12 14 15 12 12 10 9 10 9 9 9 9 9 12 13 14
17 15 13 10 9 8 8 8 7 8 8 9 10 11 9 10 11 11 11 13 13 13 13 13 16 20 18 16 16 16 15 14 13 12 13 14 12 10 10 12 13 14 15
17 14 11 11 11 11 10 10 9 9 9 10 9 9 9 8 9 10 11 12 12 12 12 13 17 19 20 20 18 17 17 17 17 16 16 16 14 11 13 14 15 16 17
16 13 11 10 12 12 12 11 9 8 7 7 6 6 6 6 7 9 11 11 11 11 12 15 17 19 20 22 19 17 16 15 16 17 17 17 16 17 16 16 17 16 15
14 13 12 11 13 12 10 10 9 7 7 5 4 3 3 3 6 8 8 9 9 10 12 14 16 19 20 23 21 19 17 16 16 17 17 15 17 17 17 17 18 20 18
17 13 14 13 14 12 10 9 8 7 5 5 3 1 2 4 5 4 5 6 7 8 10 12 14 16 20 22 23 22 22 18 17 17 17 16 17 18 18 19 17 18 19
20 18 16 15 14 13 11 10 9 7 5 4 1 1 2 3 6 5 5 5 6 10 14 15 17 19 21 24 27 27 24 21 19 17 17 18 19 19 19 21 20 19 18
24 21 21 18 15 13 11 10 9 9 6 6 2 2 3 5 6 6 7 9 12 17 21 23 25 21 21 26 28 26 25 23 18 15 12 14 17 20 24 23 21 20 19
26 23 21 17 13 10 11 10 8 10 8 6 5 6 9 10 10 10 12 13 15 19 23 27 26 25 25 27 22 22 22 23 23 22 20 18 19 20 21 22 27 29 25
27 26 23 21 17 8 11 10 11 10 9 8 11 13 12 10 11 10 13 16 19 25 31 31 28 26 29 24 23 22 21 21 22 22 23 24 24 21 22 22 23 25 30
31 31 24 22 12 16 10 7 11 11 8 8 8 8 8 8 13 15 17 20 25 31 29 29 26 24 21 23 24 26 25 25 25 28 27 27 26 26 26 26 25 25 26
31 33 24 19 10 10 10 12 14 11 8 6 5 6 9 12 14 16 20 26 31 28 24 20 22 21 22 24 25 27 30 32 34 33 29 28 29 24 26 25 23 25 24
20 21 18 12 7 9 8 12 12 6 1 4 7 11 14 14 17 23 28 26 24 19 17 18 21 23 25 29 32 35 37 28 22 26 18 19 25 28 27 23 20 19 22
12 11 6 6 7 8 8 5 2 6 7 12 14 13 17 23 23 25 23 22 20 18 19 22 25 27 28 29 31 33 21 29 16 22 28 21 22 26 27 30 31 31 29
9 10 8 6 0 5 7 8 9 9 11 14 18 20 22 21 21 19 17 18 21 23 24 25 26 27 29 28 26 22 16 12 29 24 28 25 24 32 36 37 37 37 39
12 10 8 5 5 6 7 10 13 14 15 17 18 20 17 18 16 16 17 22 26 26 27 24 26 28 28 27 25 21 20 22 23 24 18 35 38 37 35 32 30 27 26
10 8 8 7 7 10 13 14 16 16 17 18 15 13 12 13 17 19 22 31 31 21 23 26 32 28 25 21 20 24 27 23 17 21 32 28 34 36 34 33 29 22 16
6 4 3 2 5 9 12 14 16 16 16 14 15 13 14 23 25 34 37 24 21 24 27 29 32 26 26 25 25 22 20 21 24 24 25 31 30 36 30 26 27 19 14

GFSSE_850_spd_012.txt.gz
Wind_Speed
25 23 22 20 18 17 15 14 14 13 13 12 12 12 11 9 9 9 10 11 11 11 11 10 9 7 5 4 3 3 5 8 9 10 7 4 5 7 9 9 9 10 10
25 24 22 20 18 16 15 13 12 12 11 11 11 11 10 11 11 12 12 13 14 14 15 15 14 13 10 9 7 6 5 6 7 8 9 9 6 7 9 9 10 9 11
25 24 22 19 17 15 13 12 11 11 10 11 10 10 11 11 11 12 13 13 14 14 15 14 13 12 11 10 9 6 5 4 5 6 8 9 9 9 7 10 10 13 15
25 24 21 18 16 15 13 11 10 11 10 10 9 9 10 10 11 12 13 13 13 14 14 13 12 11 10 9 8 8 7 6 5 5 5 7 8 7 10 9 10 12 11
23 21 18 17 15 13 12 11 11 11 10 10 9 9 10 10 11 13 13 12 12 11 11 10 10 10 9 9 9 8 8 8 7 5 5 6 6 6 7 10 14 11 10
21 19 17 15 13 12 12 12 12 10 9 9 8 9 9 10 12 13 12 11 10 10 11 11 10 9 8 9 9 10 10 12 11 9 6 5 6 7 10 11 14 9 13
21 18 16 14 13 12 12 11 10 9 8 8 8 10 10 11 12 12 12 13 12 13 14 14 15 15 13 13 13 13 12 12 13 12 10 6 5 7 9 9 12 9 7
19 17 15 13 12 12 11 10 9 8 7 7 10 11 12 12 12 12 12 12 13 13 15 17 18 17 16 15 16 17 15 14 14 13 11 10 10 9 8 10 10 9 8
18 17 15 14 12 11 10 9 9 8 7 10 11 12 13 13 12 12 13 13 13 13 14 16 18 18 18 17 16 16 16 16 16 15 14 13 13 13 12 10 12 11 12
18 16 14 11 11 11 11 10 9 9 10 11 12 12 13 12 11 11 11 12 12 12 13 14 16 17 18 18 17 16 16 16 15 16 16 14 13 13 13 14 13 15 15
18 15 13 12 12 12 12 11 11 11 12 12 12 11 10 10 10 10 10 10 10 10 11 12 13 15 16 17 16 15 14 14 15 15 15 15 16 15 13 14 16 15 16
18 15 14 12 12 13 12 11 11 11 11 9 9 9 9 8 8 9 8 8 8 7 8 10 12 15 16 18 19 17 17 16 13 13 13 14 13 14 15 16 17 17 16
15 15 14 12 12 12 12 11 11 9 9 7 8 7 6 5 5 6 4 4 5 7 10 13 15 18 19 21 22 22 24 23 17 13 12 11 12 14 15 16 17 18 19
18 14 13 12 12 12 12 10 8 7 7 4 4 4 3 2 3 1 1 4 7 10 12 15 16 20 22 23 21 24 29 24 20 19 18 17 14 14 14 15 15 17 19
16 15 13 12 12 11 11 10 7 5 4 4 2 3 3 1 2 4 6 8 9 10 11 13 17 22 23 22 24 26 25 21 16 15 15 15 16 17 18 18 17 18 20
16 14 13 11 12 11 8 8 6 6 6 6 6 5 5 4 6 7 8 8 8 11 13 16 24 24 20 21 23 19 16 18 19 18 17 16 18 19 19 21 22 22 21
16 18 17 15 13 11 9 8 7 7 13 11 9 9 8 8 8 8 8 8 12 15 17 25 27 20 19 19 18 16 17 18 20 23 23 22 20 20 21 20 22 25 26
23 22 19 16 18 10 2 11 7 10 18 12 11 12 9 9 9 8 10 14 17 21 26 25 22 19 18 18 17 19 21 21 22 25 26 27 26 26 25 23 24 25 24
26 27 22 17 19 19 17 15 13 13 9 8 9 8 9 8 9 12 15 21 31 28 26 24 20 19 19 19 20 20 21 22 25 28 28 27 27 24 25 26 26 25 26
26 25 24 16 17 13 13 10 7 7 6 2 7 6 8 13 15 19 28 23 22 26 25 23 21 20 22 24 25 27 28 27 24 20 24 24 21 23 24 25 26 24 24
14 18 18 12 3 4 5 7 5 3 8 6 5 13 17 15 18 22 22 23 24 25 22 20 19 21 24 29 32 34 34 26 19 26 20 23 30 27 26 27 29 31 31
9 8 6 6 4 3 3 1 7 8 9 10 14 16 17 19 22 23 23 24 22 20 20 23 24 26 26 27 28 28 13 24 12 15 30 25 28 33 28 30 34 36 38
15 17 16 14 11 6 6 7 8 9 10 13 15 17 18 20 20 20 22 23 24 26 30 32 28 26 28 27 25 19 12 10 28 25 27 29 24 29 35 31 31 30 31
16 15 12 11 8 5 4 6 8 10 12 15 17 19 20 19 19 21 24 28 34 36 28 22 25 28 29 29 23 20 16 18 18 23 16 23 31 31 33 35 35 31 26
14 11 8 6 2 3 6 8 10 13 14 15 17 19 20 20 28 30 32 31 26 19 19 19 22 26 27 24 24 24 25 22 18 17 24 26 28 30 31 28 26 26 18
10 8 4 2 2 5 7 9 11 12 11 12 14 17 19 22 24 29 27 25 21 14 15 20 23 21 20 20 20 18 17 17 19 16 20 23 24 28 23 19 17 20 21

GFSSE_850_spd_015.txt.gz
Wind_Speed
26 25 23 20 20 18 16 16 16 14 13 13 13 11 10 9 8 8 7 8 9 10 11 9 7 6 4 3 1 2 5 7 8 7 5 5 6 7 8 8 9 11 12
25 25 23 21 20 19 17 16 14 13 13 13 12 10 10 10 9 9 10 12 12 13 13 13 13 11 10 8 6 5 4 5 6 7 6 4 4 6 7 7 8 9 11
24 24 22 20 20 18 16 15 14 13 13 13 12 11 11 11 11 12 13 12 12 12 12 12 11 11 10 10 9 9 8 8 6 5 6 7 6 5 5 7 9 11 10
22 24 23 20 19 16 15 14 13 13 13 12 11 11 11 11 12 13 13 11 11 10 10 10 10 10 10 10 10 10 10 10 10 9 7 6 5 7 7 7 6 11 9
24 24 22 20 17 16 14 13 12 13 12 11 11 11 11 11 12 13 12 9 9 9 9 9 9 9 10 10 11 11 12 12 12 10 9 8 6 5 7 8 9 9 6
23 22 20 18 17 15 14 13 13 12 11 11 11 12 12 12 13 12 10 9 11 12 13 14 14 14 13 13 14 13 13 13 13 12 10 9 8 8 9 10 10 9 7
22 20 19 17 15 14 13 13 13 12 11 10 11 12 12 13 13 12 11 12 14 16 17 17 17 17 16 16 16 17 15 15 15 13 11 10 10 10 11 11 10 8 6
21 20 18 16 14 13 13 13 12 11 10 12 12 13 14 13 13 12 12 13 14 16 17 17 17 17 17 16 16 16 16 17 17 15 13 12 12 12 11 12 12 10 10
20 20 18 17 15 14 13 12 11 11 11 13 13 14 14 13 13 12 11 12 13 12 13 14 14 15 16 15 16 16 17 17 16 16 15 13 11 13 11 9 11 12 12
19 18 16 16 15 14 13 12 11 11 12 13 14 13 14 13 12 11 10 10 11 10 10 11 12 13 15 17 18 18 16 16 16 14 12 11 12 12 11 11 9 10 11
19 16 15 14 14 14 13 12 11 11 13 13 12 13 12 10 9 9 8 8 8 8 9 11 12 12 14 16 18 18 19 19 19 17 13 9 8 8 9 10 12 11 11
19 16 14 13 14 14 12 11 11 12 12 12 10 10 9 8 7 7 6 5 5 7 9 11 12 13 16 20 21 19 19 22 22 16 13 13 12 10 10 10 10 11 10
18 16 14 13 13 11 10 11 11 10 10 9 8 8 7 6 5 4 2 3 4 5 7 9 11 14 19 21 21 21 24 24 21 17 15 16 16 17 16 15 14 14 14
16 14 13 12 12 11 11 9 8 7 6 4 5 6 5 4 4 2 1 3 4 6 7 9 10 13 20 23 21 21 22 24 21 17 16 15 15 17 18 18 18 19 19
15 14 13 13 12 11 9 7 6 4 5 6 4 3 4 5 4 4 5 6 6 9 10 12 13 20 23 21 20 21 22 18 18 19 19 19 18 17 18 19 19 19 20
15 14 14 12 11 10 8 7 4 4 7 6 6 8 10 8 7 7 8 9 10 12 14 16 21 25 23 22 20 20 17 17 18 19 20 21 21 21 20 21 22 21 20
14 15 14 13 12 13 11 4 1 7 11 12 15 14 12 14 8 8 10 11 12 14 19 23 23 24 23 21 19 20 18 20 21 21 21 22 24 25 26 26 25 25 24
17 17 15 11 14 14 11 3 13 12 16 16 17 12 11 7 6 9 10 12 16 24 23 24 26 23 19 18 18 18 20 23 25 26 25 24 25 26 28 29 28 28 28
17 18 18 14 15 16 19 13 16 15 13 8 5 7 8 6 8 11 14 20 24 24 24 27 23 19 19 19 20 21 22 24 27 28 28 27 26 27 26 28 28 29 29
16 17 18 16 18 13 17 9 5 2 2 5 7 8 7 12 16 14 18 20 20 23 22 21 20 20 22 25 27 28 29 29 27 23 22 25 27 25 28 30 30 32 33
8 9 11 12 5 2 5 3 5 2 4 3 4 9 12 13 15 16 17 18 19 20 21 22 24 26 28 27 27 20 22 18 15 22 26 21 25 29 28 30 29 31 34
7 6 7 9 10 11 9 6 5 3 1 5 8 12 14 15 16 17 18 19 21 25 27 27 26 20 19 22 21 16 14 15 12 13 17 24 22 30 26 28 35 35 33
22 20 18 16 14 11 9 5 1 2 5 8 13 15 16 17 17 18 21 22 25 26 24 20 14 15 14 21 23 12 11 11 21 12 17 19 17 19 26 27 30 31 32
23 21 19 18 15 10 6 2 3 5 8 11 13 14 14 14 17 20 22 26 27 25 19 15 16 18 18 16 18 13 15 15 17 21 17 18 21 22 23 22 23 26 28
18 18 16 12 9 5 3 4 6 7 7 8 8 10 13 16 21 24 26 28 27 24 21 19 17 19 19 16 21 18 13 12 12 14 25 21 21 19 18 20 18 19 23
16 15 12 10 8 5 3 4 5 7 8 9 11 14 17 21 25 27 27 26 26 25 23 18 16 23 23 16 15 13 11 12 14 16 18 20 24 24 22 21 19 20 22

GFSSE_850_spd_018.txt.gz
Wind_Speed
22 25 24 23 21 19 16 15 15 13 11 11 11 10 8 7 7 6 6 7 8 8 9 8 7 5 5 5 5 6 8 8 7 6 5 4 5 5 5 5 5 7 9
24 26 23 22 21 19 16 14 13 12 11 11 10 9 8 8 8 8 10 10 10 11 11 11 10 9 9 8 8 8 8 9 10 9 6 9 10 6 6 7 7 9 9
25 25 23 21 19 18 15 13 12 11 12 11 10 10 9 9 10 11 11 11 11 10 10 10 10 9 10 10 10 11 11 11 10 10 10 6 6 5 6 9 9 9 9
26 24 23 21 19 17 15 14 12 12 12 11 10 11 11 11 11 12 11 10 9 9 8 9 9 9 10 11 10 10 11 12 12 12 9 8 7 7 6 7 8 10 9
24 22 23 21 19 17 15 13 13 13 12 11 11 11 11 12 12 11 10 9 9 11 11 11 11 11 11 13 13 12 12 13 12 13 9 9 6 9 8 10 10 9 6
22 22 22 21 19 17 15 14 14 13 11 10 11 11 12 12 11 11 10 11 13 15 15 15 14 14 15 16 17 17 15 14 15 10 9 10 7 8 10 11 12 10 8
27 22 21 19 17 15 13 14 13 11 10 11 12 11 12 12 11 12 12 14 15 16 16 16 16 16 17 18 19 18 18 18 15 11 9 9 9 9 9 9 9 8 9
21 21 19 17 15 14 14 13 12 11 9 11 11 12 12 10 11 12 13 13 15 14 15 15 15 15 17 19 20 20 20 18 13 13 11 9 10 9 8 7 7 8 9
18 20 19 18 16 14 13 12 10 9 8 9 10 11 11 11 10 11 12 11 11 11 12 12 12 13 14 16 18 19 18 16 12 11 10 8 9 9 8 7 7 7 8
18 17 17 15 14 14 13 11 10 8 9 9 10 11 10 10 9 9 9 9 8 8 7 8 9 10 12 15 17 19 19 16 13 11 10 11 10 8 7 7 7 7 7
16 15 15 14 13 11 10 11 9 9 9 10 10 10 9 6 6 5 7 7 6 5 4 5 6 8 11 16 17 19 17 14 14 12 10 13 12 12 11 10 9 8 9
18 17 15 14 15 12 9 9 9 10 8 8 7 9 5 5 5 5 4 4 3 2 2 4 6 9 11 11 13 17 15 16 13 13 11 13 14 14 15 16 15 12 11
16 15 15 15 13 11 9 7 7 7 8 8 9 9 6 5 3 2 2 1 1 2 2 4 6 7 14 17 16 16 16 14 13 12 13 13 13 13 15 17 18 17 15
13 11 14 14 13 12 9 7 7 7 8 7 8 8 7 4 5 5 3 4 4 5 7 8 7 14 17 22 23 21 21 16 13 12 15 15 16 16 16 15 17 19 20
12 12 13 13 12 12 11 11 9 7 6 6 7 7 8 7 6 6 9 9 9 9 10 10 9 13 15 14 15 19 16 16 19 12 12 20 18 18 18 19 18 19 20
11 11 12 12 12 13 11 11 7 5 6 7 10 11 10 7 8 14 13 12 11 11 12 12 19 20 15 15 14 16 17 16 14 17 14 16 22 23 23 21 22 21 21
11 12 13 14 15 14 12 9 10 7 14 14 15 16 15 14 15 16 14 12 11 13 17 19 19 13 14 15 16 16 16 16 15 15 17 14 15 19 24 24 25 25 25
11 12 15 15 14 14 14 13 7 18 14 12 15 9 4 5 7 10 9 11 14 18 19 13 12 15 16 17 17 17 18 19 19 17 15 18 16 15 17 25 28 28 28
12 14 15 17 16 19 16 17 18 19 14 2 4 3 2 4 5 7 11 13 15 15 14 13 12 14 17 18 18 21 21 22 22 21 18 14 13 14 16 18 27 27 30
12 13 15 16 16 16 17 16 11 3 6 2 1 3 4 7 9 10 13 14 14 9 10 12 15 15 17 18 20 23 21 22 20 18 15 14 15 14 13 16 18 17 24
10 10 11 12 8 6 8 9 9 7 4 3 4 5 7 10 12 12 11 12 12 12 17 19 18 19 21 18 20 21 21 20 15 15 16 17 15 17 19 19 18 20 20
11 11 11 11 11 13 11 9 8 7 5 4 6 9 12 12 13 12 13 10 14 16 17 17 19 17 16 15 16 21 22 22 21 12 18 19 19 20 20 21 22 22 22
13 14 15 16 16 13 12 9 7 4 3 3 5 7 10 12 12 14 15 20 21 20 18 16 12 11 13 14 14 17 18 20 23 23 18 22 19 20 21 21 21 20 20
17 17 16 16 14 14 12 9 8 4 3 4 4 5 6 14 16 19 22 25 23 20 15 12 11 12 10 14 18 16 16 19 22 25 22 21 22 21 23 22 21 21 21
17 18 17 16 15 13 10 6 3 1 1 2 4 7 10 12 15 17 18 19 19 17 14 16 11 9 11 18 17 16 14 14 16 18 24 24 23 20 21 20 22 21 22
15 17 15 14 12 10 6 3 1 2 4 4 8 11 13 16 17 18 20 19 18 15 13 10 13 13 16 13 10 10 12 14 15 17 20 23 24 25 22 23 22 22 24

GFSSE_850_spd_021.txt.gz
Wind_Speed
24 26 25 24 23 21 20 17 15 13 11 10 9 8 7 6 6 6 7 8 8 8 10 10 10 10 10 10 10 9 9 10 9 8 6 9 10 9 8 6 4 9 9
27 28 26 25 24 21 18 16 13 11 10 9 8 6 6 6 7 8 9 9 9 10 11 11 11 11 11 10 10 11 11 12 12 12 11 8 7 9 8 9 9 10 10
26 27 27 25 23 20 17 14 13 10 10 9 7 7 7 7 8 9 9 9 9 9 10 10 10 10 11 11 12 12 12 12 13 16 13 4 9 11 9 10 11 10 10
27 29 27 23 22 19 16 13 11 11 10 8 7 8 7 9 9 9 9 9 9 9 9 10 11 13 14 14 13 13 14 14 15 15 8 7 10 11 9 11 11 11 9
23 23 24 22 19 18 15 13 12 11 9 7 8 8 8 10 10 9 9 10 11 11 12 13 14 15 17 18 17 18 17 17 17 14 8 7 7 9 9 10 11 11 10
25 24 22 21 18 16 14 12 10 10 8 9 9 9 10 10 10 10 11 12 14 14 14 14 16 18 19 20 21 20 19 16 16 10 8 7 8 8 9 10 10 10 9
21 22 23 20 17 15 12 11 11 10 9 9 9 10 10 9 10 11 13 13 15 14 14 16 17 17 19 21 22 22 20 16 15 12 10 6 11 9 8 8 8 8 9
16 18 21 18 16 14 12 13 12 9 8 9 8 9 9 9 9 11 12 13 13 13 12 13 14 13 15 17 19 22 20 16 12 11 9 10 12 11 10 9 8 8 9
31 24 21 19 16 14 13 12 10 9 8 8 8 10 9 9 9 8 9 9 9 10 9 9 9 9 11 14 17 21 18 17 16 11 10 6 15 11 11 11 11 10 10
26 28 22 17 14 14 14 12 10 8 7 8 9 9 8 7 7 6 5 3 4 6 5 5 5 7 11 16 19 21 17 18 16 11 10 13 16 13 11 10 10 11 10
17 18 17 14 11 9 6 10 8 7 9 8 9 9 9 6 4 5 2 2 1 2 3 4 5 9 11 15 15 20 16 14 13 13 12 14 14 13 14 14 12 11 12
17 19 15 18 16 12 9 9 6 7 6 6 5 6 5 4 3 5 2 2 4 4 6 8 9 10 12 10 11 14 13 16 14 14 15 17 16 14 15 16 16 15 13
15 15 16 17 18 12 9 8 7 7 6 5 5 5 2 1 2 4 4 6 6 9 6 9 10 8 11 12 12 13 14 15 13 13 19 21 18 15 16 16 16 17 16
12 11 13 13 15 11 9 9 9 7 6 4 0 0 1 3 0 3 5 6 9 8 10 9 10 12 12 13 14 14 15 15 14 13 20 20 21 18 16 17 17 18 18
14 12 12 13 12 12 11 11 10 9 8 7 5 6 6 7 8 4 7 10 11 10 10 11 12 12 14 15 15 16 15 16 16 14 13 23 23 23 22 19 20 20 19
13 13 14 13 13 13 12 12 10 7 3 4 8 8 10 10 13 28 18 12 12 10 10 10 13 15 15 16 17 17 18 18 17 17 15 19 23 22 24 23 21 21 21
13 14 15 15 15 15 16 15 18 13 4 10 12 14 14 18 20 10 15 16 10 9 10 11 13 13 15 18 18 18 19 18 19 19 19 17 19 22 21 23 27 25 25
13 14 15 15 16 15 16 18 9 23 24 14 16 13 13 10 9 9 7 5 12 9 9 10 12 14 15 17 19 20 20 21 21 22 21 20 15 16 20 20 23 27 29
14 15 15 15 17 17 17 12 9 14 17 12 5 3 4 4 5 2 4 6 10 8 10 12 13 15 18 21 23 22 22 24 22 22 20 19 16 16 15 19 22 22 19
13 14 14 17 15 17 15 12 12 10 6 6 4 4 4 1 4 1 5 11 10 9 12 13 16 17 20 23 24 22 22 20 22 20 15 15 16 16 17 16 21 19 23
14 14 18 16 14 9 9 9 8 9 8 8 6 6 2 3 6 9 4 8 10 11 13 16 19 20 20 20 21 21 21 23 20 16 22 15 13 17 19 22 20 19 22
13 14 12 11 11 9 9 10 9 8 8 8 6 2 3 5 5 4 9 9 11 14 17 18 18 19 17 16 19 21 24 24 19 15 17 19 24 19 21 20 22 21 21
13 14 12 12 12 12 12 11 11 10 7 5 1 0 4 4 5 8 10 12 15 16 17 18 17 15 17 17 16 18 24 23 25 23 23 24 25 23 21 22 22 21 21
14 14 14 16 15 12 11 10 9 5 5 4 1 2 3 7 9 11 13 15 16 17 18 17 15 15 15 17 18 20 21 22 24 29 22 21 21 23 22 23 22 21 23
18 18 17 15 12 11 10 8 6 5 4 2 1 4 6 8 11 12 15 16 18 18 17 16 17 15 15 18 21 20 18 18 19 22 27 25 23 23 22 22 21 23 24
18 17 16 14 13 12 11 10 10 8 4 1 3 5 6 10 11 12 14 16 17 18 17 16 16 15 18 18 18 16 17 17 19 20 23 25 27 26 23 22 24 24 24

GFSSE_850_spd_024.txt.gz
Wind_Speed
24 28 25 24 23 22 21 20 18 15 12 12 11 9 9 10 11 12 14 14 14 15 15 15 15 15 14 13 13 13 13 14 14 12 9 9 9 13 7 6 7 11 12
27 30 27 24 25 24 22 19 16 14 12 11 10 9 9 10 11 13 14 13 13 13 14 15 15 15 14 14 14 14 14 16 19 14 11 7 11 14 10 9 10 10 11
28 31 28 26 25 23 21 17 15 14 12 10 9 9 9 11 12 12 12 11 11 13 15 16 16 17 17 17 18 18 18 17 17 15 14 5 14 14 11 10 11 11 10
31 32 30 26 24 22 19 16 14 13 11 9 8 10 10 12 11 11 11 12 14 15 17 18 19 20 21 21 21 20 20 18 17 16 9 11 14 11 9 10 10 10 10
27 27 28 25 22 20 17 14 14 12 10 10 9 10 10 12 10 10 12 14 16 17 19 19 21 22 22 22 22 20 17 18 18 13 8 3 9 12 10 9 9 9 8
26 25 26 22 19 18 16 13 13 12 9 10 10 10 11 11 10 12 15 16 17 18 18 19 20 20 21 22 22 19 15 16 18 12 7 10 14 14 14 12 10 9 9
27 27 22 18 16 15 14 13 12 11 9 10 9 11 11 11 12 14 15 16 16 17 17 16 16 16 18 21 23 22 18 14 16 12 12 11 17 16 14 13 13 13 11
27 36 22 20 17 13 13 13 11 10 10 10 10 11 11 11 12 13 14 15 14 14 13 13 12 14 17 19 23 20 20 19 14 14 9 10 17 19 14 13 13 13 13
29 31 29 21 19 16 14 12 10 9 10 9 10 11 11 11 10 10 10 11 10 10 9 9 10 11 14 17 19 18 19 18 14 14 13 14 17 18 15 13 13 12 13
18 27 21 21 17 17 14 11 9 8 9 9 10 11 11 10 9 6 6 6 6 5 5 7 9 12 12 14 14 17 15 15 15 16 16 18 18 18 14 14 14 13 13
26 20 16 16 15 13 12 11 9 9 10 10 11 15 13 12 9 6 8 4 4 5 7 9 11 12 11 14 13 14 12 13 14 14 17 18 20 23 17 15 14 14 14
25 20 18 16 13 11 11 10 10 12 13 12 12 13 9 8 5 3 6 8 8 9 9 10 13 11 9 11 8 12 10 13 9 13 16 20 20 23 20 16 15 15 14
24 25 23 22 19 15 9 13 13 12 11 10 7 10 5 6 2 4 4 4 9 9 5 10 12 9 15 13 16 13 13 13 11 11 17 19 20 22 23 21 18 16 15
24 25 22 22 21 13 17 14 12 10 7 8 4 11 6 6 10 9 11 6 1 4 9 9 8 10 7 12 13 16 17 12 14 13 16 19 21 21 22 24 22 19 17
17 22 25 24 19 19 15 18 17 17 14 11 8 10 12 10 9 8 9 15 11 8 10 7 10 14 16 13 14 14 14 18 16 16 17 19 21 23 20 21 22 20 19
13 15 20 19 17 20 17 19 17 13 10 10 10 8 8 7 9 9 16 17 10 13 17 13 9 14 11 11 14 17 17 18 16 14 16 20 21 24 20 17 17 20 21
15 17 20 18 22 20 19 18 19 16 4 7 5 9 11 10 12 12 14 9 13 15 12 12 12 12 16 18 16 18 18 19 19 17 21 20 25 26 18 19 20 19 26
20 19 20 19 23 22 20 25 21 9 21 14 18 10 9 10 9 9 3 8 10 10 11 15 13 14 17 17 19 23 21 21 23 21 21 18 18 19 18 19 21 26 26
20 21 20 20 24 21 26 23 11 14 9 7 7 2 3 2 2 4 6 11 10 6 7 10 13 18 21 21 21 20 24 24 18 19 21 22 16 16 16 19 21 20 23
19 21 21 20 15 19 25 15 12 9 8 5 5 3 4 2 2 3 7 10 9 5 9 14 20 19 20 21 23 21 21 17 18 15 24 16 17 15 10 16 20 14 13
20 19 17 22 21 17 19 9 8 6 9 11 11 8 7 2 2 0 7 5 7 11 13 16 19 19 21 20 19 17 18 22 15 14 13 11 12 15 18 19 16 17 20
16 17 19 18 16 11 9 10 10 12 11 11 9 6 5 4 5 2 11 12 13 17 19 17 19 21 17 14 17 21 20 21 19 18 22 22 21 18 20 19 23 22 21
18 17 15 11 11 15 12 15 15 18 16 12 2 4 4 8 6 10 12 14 18 18 16 17 20 15 17 16 14 14 20 16 25 21 19 22 23 22 23 21 19 21 21
21 18 12 14 13 16 18 16 13 11 12 13 13 10 0 7 8 7 8 12 13 18 21 17 15 19 21 18 15 15 20 23 22 27 18 18 21 20 21 22 21 21 20
16 16 18 19 18 17 13 18 16 14 13 10 8 2 1 7 9 11 13 17 19 21 20 21 18 20 21 19 17 19 18 17 18 20 25 19 21 23 23 23 20 22 23
21 22 24 19 16 16 16 17 18 17 16 11 7 4 10 11 10 12 16 19 18 16 16 17 19 19 19 17 22 16 14 15 17 17 19 23 24 24 22 24 22 22 21

GFSSE_850_spd_027.txt.gz
Wind_Speed
29 28 25 24 24 23 22 22 20 17 16 15 14 14 15 16 18 18 18 18 18 19 19 18 18 17 17 16 16 17 17 17 17 15 13 14 14 13 9 9 11 11 11
34 29 29 26 24 23 23 21 18 17 16 15 14 15 16 18 18 17 18 18 18 18 19 20 20 21 21 20 20 20 19 16 14 13 11 13 16 15 12 10 10 10 10
35 27 24 26 25 24 23 19 17 17 15 14 14 15 17 18 18 16 16 17 18 21 22 23 24 25 25 24 25 22 18 15 15 15 12 12 15 15 11 11 11 10 10
37 34 29 25 25 23 21 19 17 16 15 15 15 16 17 18 16 15 17 19 21 23 23 24 25 25 24 23 20 19 19 11 12 13 11 11 18 14 12 12 12 12 12
35 35 33 27 24 21 19 18 16 14 14 15 16 16 17 16 16 18 19 21 22 23 24 24 24 25 25 22 16 17 19 18 12 12 11 14 19 18 14 13 13 12 12
37 36 33 27 23 21 18 16 15 14 14 15 16 16 16 16 18 19 20 21 21 22 21 21 20 21 23 23 21 14 17 21 12 12 12 11 16 23 18 16 14 13 13
39 37 34 30 22 19 14 15 13 13 14 14 16 16 16 17 19 20 20 19 19 18 17 17 18 19 20 22 21 19 14 17 17 13 11 12 17 21 17 16 15 15 14
43 36 33 30 23 18 15 15 13 12 13 14 16 16 16 18 19 18 18 17 16 15 14 15 16 17 18 20 17 17 20 17 17 16 14 17 19 20 19 15 14 14 15
33 33 30 25 23 18 16 15 13 12 13 15 16 16 16 17 18 16 14 13 12 11 12 12 13 13 14 14 14 11 13 15 15 15 17 19 20 18 20 16 13 12 13
28 25 12 22 20 20 18 14 13 13 14 16 16 16 16 15 13 12 10 9 8 8 9 11 13 10 10 10 9 8 9 12 13 14 14 16 18 21 21 16 13 12 12
29 24 31 22 20 18 17 15 13 14 15 17 17 17 17 13 13 9 8 6 6 7 7 10 11 5 5 8 12 11 12 12 12 12 14 17 19 20 20 18 15 13 12
31 30 25 22 19 18 17 15 14 16 18 20 16 14 11 9 9 9 8 8 11 8 5 9 9 6 8 11 13 12 14 13 11 11 17 19 17 20 21 19 18 16 14
29 25 22 22 20 16 15 16 20 19 20 20 15 13 9 8 6 3 4 7 5 3 1 5 2 2 3 8 10 15 16 14 10 16 15 15 16 18 20 20 19 18 15
24 24 24 21 20 15 21 20 17 16 13 14 14 15 12 14 12 6 8 7 3 1 1 4 6 7 8 10 9 11 10 12 13 15 15 17 19 20 23 22 19 17 17
27 30 28 23 18 18 18 21 19 17 17 18 15 13 13 10 9 9 11 10 12 10 11 9 9 13 15 13 12 11 13 16 17 13 11 15 17 18 22 23 20 17 16
30 31 31 26 23 22 25 23 21 18 16 12 9 9 11 7 6 9 9 14 13 8 11 14 15 13 15 15 14 17 17 17 15 14 16 16 19 20 22 25 18 18 21
25 32 30 26 25 23 25 24 20 16 12 8 7 3 7 10 9 11 10 10 9 10 11 12 14 15 17 17 18 19 17 15 16 17 17 17 17 19 19 15 19 19 21
20 31 26 23 27 23 21 21 21 18 13 11 16 17 10 10 10 10 9 8 6 9 13 16 18 18 16 20 21 19 16 17 19 21 20 14 19 21 16 15 14 16 18
16 20 23 29 25 22 22 23 22 15 11 10 8 4 6 8 9 6 6 7 10 12 14 16 17 18 22 23 22 22 17 18 19 13 17 11 10 8 6 10 12 16 14
21 21 24 26 24 22 23 26 20 13 9 7 6 8 9 8 7 7 9 10 11 12 14 16 18 21 22 22 23 21 13 11 14 16 13 6 6 5 8 8 12 14 17
27 25 25 20 22 25 27 30 16 12 11 14 11 9 9 9 7 8 9 10 12 15 17 19 22 21 21 22 21 22 19 18 11 9 15 15 16 16 15 18 19 21 24
32 31 25 20 20 19 28 27 14 13 18 15 11 11 10 9 7 6 8 12 15 17 19 18 19 20 18 18 20 20 12 21 8 10 15 18 22 19 16 16 17 18 19
31 30 18 18 17 17 21 21 16 18 17 16 14 13 11 7 5 8 11 14 16 17 18 19 20 19 18 17 16 17 9 5 25 13 23 17 15 18 16 17 16 17 15
25 22 17 15 15 24 24 23 25 26 26 20 15 14 9 6 9 13 13 15 17 18 20 22 20 20 21 23 20 14 17 21 24 21 11 15 14 17 22 24 19 15 18
19 21 12 14 19 18 20 25 24 26 24 22 20 16 12 9 13 18 19 20 19 20 20 18 17 16 17 19 20 20 20 22 18 20 22 19 21 22 21 19 20 24 26
22 21 20 22 23 27 27 27 25 27 29 27 25 16 9 11 16 17 16 16 17 18 17 15 15 17 18 20 21 21 22 15 18 20 21 22 23 25 23 20 24 25 28